Find Starlink 1992

NORAD ID: 47632 Int'l Des: 2021-012 Owner: SPXS Country: US Constellation: starlink operational
LEOCIRCULAR

当前视图

正在加载3D地球...

About Starlink 1992

Starlink 1992 (NORAD 47632) is a starlink constellation satellite (v1.0) launched Feb 16, 2021 by SPXS of US. It operates in LEO, CIRCULAR orbit with a mass of 260.00 kg.

即将过境

Passes for default location (London). Set your location on the main map for personalized predictions.

高度历史

Loading altitude history...

两行轨道根数

1 47632U 21012N 26235.55092462 .00003737 00000-0 13212-3 0 9991
2 47632 53.1580 276.2097 0001194 82.4017 277.7120 15.31698827306922
Epoch: Aug 23, 2026 • Age: 13 hours

当前状态

高度 475.5 km
远地点 / 近地点 N/A
速度 7.63 km/s
星下点 48.72°N, 29.78°E
发射日期 Feb 16, 2021
运行时间 5.5 years
类型 internet

技术详情

分类 Payload
质量 260.00 kg
干质量 248.00 kg
总质量 260.00 kg
长度 0.20 m
直径 2.80 m
跨度 9.00 m
形状 Box + pan
制造商 SPXS
平台类型 Starlink
阶段状态 In Orbit
所有者/国家 SPXS/US

Most Searched